Torna al catalogo

SL-14 R/B

AttivoPO
NORAD 15945·ROCKET BODY·🇷🇺 Russia

Lanciato Aug 8, 1985 da Plesetsk Cosmodrome

Loading…

Prossimi Passaggi (prossime 24 ore)

TLE

AggiornatoSource: Space-Track

Epoca: Sep 14, 2026, 06:57 UTC

1 15945U 85069B   26257.29003895  .00000351  00000-0  36756-4 0  9990
2 15945  82.5276 207.5589 0017243 289.4045  70.5307 14.86569316200857

Traccia SL-14 R/B in tempo reale con AllMySat

Download on the App Store